Yuma, AZ

7:31 PM MST on August 25, 2016 (GMT -0700)
Yuma Marine Corps Air Station

Weather History for KNYL - December, 2011

Change the Weather History Date:

Monday, December 12, 2011

  Actual Average Record
Temperature  
Mean Temperature 57 °F 57 °F  
Max Temperature 63 °F 68 °F 85 °F (1950)
Min Temperature 50 °F 46 °F 30 °F (1949)
Degree Days  
Heating Degree Days 8 8  
Month to date heating degree days 142 80  
Since 1 July heating degree days 194 148  
Cooling Degree Days 0 0  
Month to date cooling degree days 0 0  
Year to date cooling degree days 4687 4649  
Growing Degree Days 6 (Base 50)    
Moisture  
Dew Point 44 °F    
Average Humidity 66    
Maximum Humidity 80    
Minimum Humidity 51    
Precipitation  
Precipitation T in 0.01 in 0.55 in (1934)
Month to date precipitation T 0.17  
Year to date precipitation 1.84 3.22  
Sea Level Pressure  
Sea Level Pressure 29.80 in    
Wind  
Wind Speed 4 mph (NNE)    
Max Wind Speed 18 mph    
Max Gust Speed 23 mph    
Visibility 10 miles    
Events Rain    
T = Trace of Precipitation, MM = Missing Value Source: NWS Daily Summary

Daily Weather History Graph

Daily Weather History Graph

Search for Another Location

Airport or City:

Trip Planner

Search our weather history database for the weather conditions in past years. The results will help you decide how hot, cold, wet, or windy it might be!

Date:

Astronomy

Dec. 12, 2011 Rise Set
Actual Time 7:30 AM MST 5:33 PM MST
Civil Twilight 7:03 AM MST 6:00 PM MST
Nautical Twilight 6:33 AM MST 6:31 PM MST
Astronomical Twilight 6:03 AM MST 7:01 PM MST
Moon 7:45 PM MST (12/12) 9:07 AM MST (12/12)
Length of Visible Light 10h 56m
Length of Day
10h 02m
Waning Gibbous, 95% of the Moon is Illuminated
Dec 12
Waning Gibbous
Dec 17
Last Quarter
Dec 24
New
Dec 31
First Quarter
Jan 9
Full

Hourly Weather History & Observations

Time (MST) Temp. Dew Point Humidity Pressure Visibility Wind Dir Wind Speed Gust Speed Precip Events Conditions
12:55 AM 54.0 °F 45.0 °F 72% 29.82 in 10.0 mi Calm Calm - N/A   Clear
1:55 AM 55.0 °F 37.9 °F 53% 29.80 in 10.0 mi East 8.1 mph - N/A   Clear
2:55 AM 55.0 °F 39.0 °F 55% 29.77 in 10.0 mi ENE 4.6 mph - N/A   Scattered Clouds
3:55 AM 54.0 °F 37.0 °F 53% 29.78 in 10.0 mi Calm Calm - N/A   Overcast
4:55 AM 53.1 °F 37.9 °F 57% 29.78 in 10.0 mi NNW 3.5 mph - N/A   Overcast
5:12 AM - - N/A% - - North - - N/A   Unknown
5:55 AM 53.1 °F 41.0 °F 64% 29.78 in 10.0 mi North 3.5 mph - 0.00 in Rain Light Rain
6:55 AM 54.0 °F 41.0 °F 62% 29.79 in 10.0 mi Calm Calm - 0.00 in Rain Light Rain
7:55 AM 52.0 °F 43.0 °F 71% 29.80 in 10.0 mi Calm Calm - 0.00 in   Mostly Cloudy
8:55 AM 53.1 °F 41.0 °F 64% 29.80 in 10.0 mi NNE 3.5 mph - N/A   Mostly Cloudy
9:55 AM 54.0 °F 43.0 °F 66% 29.81 in 10.0 mi NNE 4.6 mph - N/A   Mostly Cloudy
10:55 AM 61.0 °F 46.0 °F 58% 29.81 in 10.0 mi East 4.6 mph - N/A   Mostly Cloudy
11:00 AM - - N/A% - - North - - N/A   Unknown
11:55 AM 62.1 °F 48.0 °F 60% 29.79 in 10.0 mi SSW 5.8 mph - N/A   Mostly Cloudy
12:55 PM 61.0 °F 48.0 °F 62% 29.78 in 10.0 mi West 10.4 mph - N/A   Mostly Cloudy
1:55 PM 57.9 °F 48.9 °F 72% 29.78 in 10.0 mi West 15.0 mph - 0.00 in Rain Light Rain
2:55 PM 57.0 °F 48.0 °F 72% 29.78 in 10.0 mi WNW 6.9 mph - 0.00 in Rain Light Rain
3:55 PM 59.0 °F 46.0 °F 62% 29.75 in 10.0 mi Calm Calm - 0.00 in   Mostly Cloudy
4:55 PM 57.9 °F 45.0 °F 62% 29.78 in 10.0 mi WSW 4.6 mph - N/A   Mostly Cloudy
5:55 PM 55.9 °F 46.0 °F 69% 29.80 in 10.0 mi Calm Calm - N/A   Partly Cloudy
6:55 PM 54.0 °F 46.0 °F 75% 29.82 in 10.0 mi East 3.5 mph - N/A   Scattered Clouds
7:55 PM 54.0 °F 45.0 °F 72% 29.83 in 10.0 mi SSE 3.5 mph - N/A   Mostly Cloudy
8:55 PM 53.1 °F 45.0 °F 74% 29.84 in 10.0 mi ENE 3.5 mph - N/A   Partly Cloudy
9:55 PM 52.0 °F 44.1 °F 74% 29.85 in 10.0 mi NNE 3.5 mph - N/A   Clear
10:55 PM 50.0 °F 44.1 °F 80% 29.86 in 10.0 mi North 5.8 mph - N/A   Clear
11:55 PM 51.1 °F 45.0 °F 80% 29.86 in 10.0 mi NNE 4.6 mph - N/A   Overcast